Regional Weather Roundup
Issued by NWS

Home | Current Version | Previous Version | Text Only | Print | Product List | Glossary Off
Versions: 1 2 3 4 5 6 7 8 9 10 11 12 13 14 15 16 17 18 19 20 21 22 23 24 25 26 27 28 29 30 31 32 33 34 35 36 37 38 39 40 41 42 43 44 45 46 47 48 49 50

000
ASUS43 KBIS 300820
RWRND

NORTH DAKOTA REGIONAL WEATHER ROUNDUP
NATIONAL WEATHER SERVICE BISMARCK ND
300 AM CDT SAT AUG 30 2014

NOTE: "FAIR" INDICATES FEW OR NO CLOUDS BELOW 12,000 FEET WITH NO
SIGNIFICANT WEATHER AND/OR OBSTRUCTIONS TO VISIBILITY.


NDZ001>003-009>011-017-300900-
NORTHWEST NORTH DAKOTA

CITY           SKY/WX    TMP DP  RH WIND       PRES   REMARKS
WILLISTON      CLEAR     57  51  80 CALM      29.94F
MINOT          CLEAR     52  47  83 CALM      29.96F
MINOT AFB      CLEAR     46  46  99 SW3       29.96S
$$

NDZ018>021-031>035-040>046-300900-
SOUTHWEST NORTH DAKOTA

CITY           SKY/WX    TMP DP  RH WIND       PRES   REMARKS
BISMARCK       CLEAR     47  47 100 CALM      30.00R
DICKINSON      PTCLDY    51  48  89 SE8       29.97F
GARRISON         N/A     49  48  97 CALM      29.98S
HETTINGER ARPT CLEAR     53  51  93 CALM      30.00F
$$

NDZ004>008-012>016-024-026-027-054-300900-
NORTHEAST NORTH DAKOTA

CITY           SKY/WX    TMP DP  RH WIND       PRES   REMARKS
GRAND FORKS    CLEAR     53  50  89 N9        29.92S
GRND FRKS AFB  CLEAR     51  51  99 N7        29.94S
DEVILS LAKE    CLEAR     48  43  81 N3        29.96R
$$

NDZ022-023-025-028>030-036>039-047>053-300900-
SOUTHEAST NORTH DAKOTA

CITY           SKY/WX    TMP DP  RH WIND       PRES   REMARKS
FARGO          CLOUDY    60  54  80 N15       29.89R
JAMESTOWN      CLEAR     54  51  90 N5        29.94F
$$



USA.gov is the U.S. government's official web portal to all federal, state and local government web resources and services.